• In Uzbekistan
  • List of Countries
  • For 7 days
  • Water Temperature
  • Satellite Maps
  • Weather Map
  • Weather Widgets
  • user-avatar
    Login

    Hourly Weather Bad Laasphe

    Today, 20 April, Friday

    Time Temperature Precipitation Wind Pressure Humidity
    00:00 +13°C° 0 mm 1 mps 736 mmHg 76%
    01:00 +14°C° 0 mm 1 mps 735 mmHg 76%
    02:00 +14°C° 0 mm 1 mps 735 mmHg 76%
    03:00 +13°C° 0 mm 1 mps 735 mmHg 75%
    04:00 +13°C° 0 mm 1 mps 735 mmHg 75%
    05:00 +14°C° 0 mm 1 mps 735 mmHg 74%
    06:00 +14°C° 0 mm 1 mps 735 mmHg 73%
    07:00 +16°C° 0 mm 2 mps 735 mmHg 67%
    08:00 +18°C° 0 mm 2 mps 735 mmHg 61%
    09:00 +20°C° 0 mm 2 mps 735 mmHg 55%
    10:00 +24°C° 0 mm 2 mps 735 mmHg 49%
    11:00 +25°C° 0 mm 2 mps 735 mmHg 45%
    12:00 +26°C° 0 mm 2 mps 735 mmHg 41%
    13:00 +27°C° 0 mm 1 mps 735 mmHg 39%
    14:00 +27°C° 0 mm 1 mps 734 mmHg 39%
    15:00 +27°C° 0 mm 1 mps 734 mmHg 39%
    16:00 +27°C° 0 mm 1 mps 734 mmHg 39%
    17:00 +25°C° 0 mm 1 mps 733 mmHg 47%
    18:00 +23°C° 0 mm 1 mps 733 mmHg 55%
    19:00 +21°C° 0 mm 1 mps 732 mmHg 63%
    20:00 +19°C° 0 mm 1 mps 732 mmHg 66%
    21:00 +18°C° 0 mm 1 mps 732 mmHg 69%
    22:00 +16°C° 0 mm 1 mps 732 mmHg 72%
    23:00 +15°C° 0 mm 1 mps 732 mmHg 75%

    Tomorrow, 21 April, Saturday

    Time Temperature Precipitation Wind Pressure Humidity
    00:00 +15°C° 0 mm 1 mps 733 mmHg 77%
    01:00 +15°C° 0 mm 1 mps 733 mmHg 80%
    02:00 +14°C° 0 mm 1 mps 733 mmHg 83%
    03:00 +14°C° 0 mm 1 mps 733 mmHg 85%
    04:00 +13°C° 0 mm 1 mps 732 mmHg 88%
    05:00 +14°C° 0 mm 1 mps 733 mmHg 87%
    06:00 +15°C° 0 mm 1 mps 733 mmHg 85%
    07:00 +15°C° 0 mm 1 mps 733 mmHg 84%
    08:00 +18°C° 0 mm 1 mps 733 mmHg 75%
    09:00 +20°C° 0 mm 1 mps 733 mmHg 67%
    10:00 +22°C° 0 mm 1 mps 733 mmHg 58%
    11:00 +23°C° 0 mm 1 mps 733 mmHg 54%
    12:00 +24°C° 0 mm 2 mps 733 mmHg 50%
    13:00 +24°C° 0 mm 2 mps 733 mmHg 46%
    14:00 +24°C° 0 mm 2 mps 733 mmHg 46%
    15:00 +24°C° 0 mm 2 mps 732 mmHg 47%
    16:00 +24°C° 0 mm 2 mps 732 mmHg 48%
    17:00 +21°C° 0 mm 2 mps 732 mmHg 56%
    18:00 +19°C° 0 mm 2 mps 732 mmHg 65%
    19:00 +18°C° 0 mm 2 mps 731 mmHg 73%
    20:00 +16°C° 0 mm 2 mps 731 mmHg 77%
    21:00 +15°C° 0 mm 2 mps 731 mmHg 82%
    22:00 +13°C° 0 mm 2 mps 731 mmHg 86%
    23:00 +13°C° 0 mm 2 mps 731 mmHg 86%

    Day after tomorrow, 22 April, Sunday

    Time Temperature Precipitation Wind Pressure Humidity
    00:00 +13°C° 0 mm 1 mps 731 mmHg 87%
    01:00 +12°C° 0 mm 1 mps 731 mmHg 87%
    02:00 +12°C° 0 mm 1 mps 731 mmHg 88%
    03:00 +12°C° 0 mm 1 mps 730 mmHg 89%
    04:00 +12°C° 0 mm 1 mps 730 mmHg 91%
    05:00 +13°C° 0 mm 1 mps 730 mmHg 89%
    06:00 +14°C° 0 mm 1 mps 730 mmHg 87%
    07:00 +15°C° 0 mm 1 mps 729 mmHg 84%
    08:00 +17°C° 0 mm 2 mps 729 mmHg 78%
    09:00 +19°C° 0 mm 2 mps 729 mmHg 72%
    10:00 +21°C° 0 mm 3 mps 729 mmHg 65%
    11:00 +22°C° 0.3 mm 3 mps 729 mmHg 62%
    12:00 +24°C° 0.3 mm 3 mps 729 mmHg 58%
    13:00 +25°C° 0.3 mm 3 mps 728 mmHg 55%
    14:00 +25°C° 0.4 mm 3 mps 728 mmHg 56%
    15:00 +24°C° 0.4 mm 3 mps 728 mmHg 58%
    16:00 +24°C° 0.4 mm 3 mps 727 mmHg 59%
    17:00 +22°C° 0.3 mm 3 mps 727 mmHg 66%
    18:00 +20°C° 0.3 mm 3 mps 727 mmHg 73%
    19:00 +18°C° 0.3 mm 2 mps 727 mmHg 80%
    20:00 +17°C° 0 mm 2 mps 727 mmHg 84%
    21:00 +16°C° 0 mm 2 mps 727 mmHg 87%
    22:00 +15°C° 0 mm 2 mps 727 mmHg 90%
    23:00 +15°C° 0.1 mm 2 mps 727 mmHg 91%

    23 April, Monday

    Time Temperature Precipitation Wind Pressure Humidity
    00:00 +15°C° 0.1 mm 2 mps 727 mmHg 92%
    01:00 +15°C° 0.1 mm 2 mps 727 mmHg 93%
    02:00 +15°C° 0.2 mm 2 mps 727 mmHg 93%
    03:00 +14°C° 0.2 mm 2 mps 727 mmHg 94%
    04:00 +14°C° 0.2 mm 2 mps 727 mmHg 95%
    05:00 +14°C° 0.1 mm 2 mps 727 mmHg 94%
    06:00 +13°C° 0.1 mm 3 mps 727 mmHg 93%
    07:00 +13°C° 0.1 mm 3 mps 727 mmHg 92%
    08:00 +14°C° 0 mm 3 mps 727 mmHg 86%
    09:00 +16°C° 0 mm 3 mps 728 mmHg 79%
    10:00 +15°C° 0 mm 4 mps 728 mmHg 73%
    11:00 +17°C° 0.1 mm 4 mps 728 mmHg 70%
    12:00 +17°C° 0.1 mm 4 mps 728 mmHg 66%
    13:00 +17°C° 0.1 mm 5 mps 728 mmHg 63%
    14:00 +17°C° 0.1 mm 5 mps 728 mmHg 63%
    15:00 +16°C° 0.1 mm 5 mps 728 mmHg 63%
    16:00 +16°C° 0.1 mm 5 mps 728 mmHg 62%
    17:00 +15°C° 0 mm 4 mps 728 mmHg 65%
    18:00 +13°C° 0 mm 3 mps 728 mmHg 68%
    19:00 +12°C° 0 mm 3 mps 729 mmHg 71%
    20:00 +12°C° 0 mm 2 mps 729 mmHg 75%
    21:00 +10°C° 0 mm 2 mps 730 mmHg 79%
    22:00 +9°C° 0 mm 1 mps 730 mmHg 82%
    23:00 +9°C° 0 mm 1 mps 730 mmHg 83%

    24 April, Tuesday

    Time Temperature Precipitation Wind Pressure Humidity
    00:00 +8°C° 0 mm 2 mps 730 mmHg 84%
    01:00 +7°C° 0 mm 2 mps 730 mmHg 85%
    02:00 +7°C° 0 mm 2 mps 730 mmHg 86%
    03:00 +7°C° 0 mm 2 mps 730 mmHg 88%
    04:00 +7°C° 0 mm 2 mps 729 mmHg 89%
    05:00 +8°C° 0 mm 3 mps 729 mmHg 83%
    06:00 +7°C° 0 mm 4 mps 729 mmHg 78%
    07:00 +8°C° 0 mm 4 mps 729 mmHg 72%
    08:00 +11°C° 0 mm 4 mps 730 mmHg 68%
    09:00 +12°C° 0 mm 4 mps 730 mmHg 64%
    10:00 +14°C° 0 mm 5 mps 730 mmHg 60%
    11:00 +15°C° 0 mm 5 mps 730 mmHg 60%
    12:00 +16°C° 0 mm 5 mps 730 mmHg 59%
    13:00 +17°C° 0 mm 5 mps 730 mmHg 59%
    14:00 +18°C° 0 mm 4 mps 729 mmHg 60%
    15:00 +18°C° 0 mm 4 mps 729 mmHg 62%
    16:00 +18°C° 0 mm 4 mps 728 mmHg 63%
    17:00 +17°C° 0 mm 3 mps 728 mmHg 68%
    18:00 +16°C° 0 mm 3 mps 728 mmHg 73%
    19:00 +16°C° 0 mm 2 mps 727 mmHg 78%
    20:00 +14°C° 0 mm 2 mps 727 mmHg 82%
    21:00 +13°C° 0 mm 2 mps 727 mmHg 86%
    22:00 +12°C° 0 mm 2 mps 727 mmHg 91%
    23:00 +12°C° 0 mm 2 mps 727 mmHg 92%

    25 April, Wednesday

    Time Temperature Precipitation Wind Pressure Humidity
    00:00 +10°C° 0 mm 2 mps 727 mmHg 93%
    01:00 +10°C° 0 mm 2 mps 726 mmHg 95%
    02:00 +10°C° 0 mm 2 mps 726 mmHg 95%
    03:00 +10°C° 0 mm 2 mps 726 mmHg 96%
    04:00 +9°C° 0 mm 2 mps 726 mmHg 96%
    05:00 +10°C° 0 mm 2 mps 726 mmHg 94%
    06:00 +12°C° 0 mm 2 mps 726 mmHg 92%
    07:00 +12°C° 0 mm 3 mps 725 mmHg 89%
    08:00 +13°C° 0 mm 3 mps 726 mmHg 83%
    09:00 +14°C° 0 mm 4 mps 726 mmHg 77%
    10:00 +15°C° 0 mm 5 mps 726 mmHg 70%
    11:00 +15°C° 0.1 mm 5 mps 726 mmHg 69%
    12:00 +16°C° 0.1 mm 5 mps 725 mmHg 68%
    13:00 +16°C° 0.1 mm 6 mps 725 mmHg 67%
    14:00 +16°C° 0.2 mm 6 mps 725 mmHg 67%
    15:00 +15°C° 0.2 mm 5 mps 725 mmHg 67%
    16:00 +15°C° 0.2 mm 5 mps 725 mmHg 68%
    17:00 +14°C° 0.3 mm 5 mps 725 mmHg 73%
    18:00 +13°C° 0.3 mm 4 mps 725 mmHg 78%
    19:00 +11°C° 0.3 mm 4 mps 726 mmHg 84%
    20:00 +10°C° 0.1 mm 3 mps 726 mmHg 86%
    21:00 +9°C° 0.1 mm 3 mps 727 mmHg 88%
    22:00 +8°C° 0.1 mm 3 mps 728 mmHg 91%
    23:00 +8°C° 0 mm 3 mps 728 mmHg 92%
    Show more